Location: Bonningues
(50.7927°N, 2.0150°E)
Time: 14:38:37
(UTC+00:00)

Cosmos 2219 Rocket - Pass Details

Date: 08 August 2020
Orbit: 826 x 848 km, 71.0° (Epoch: 18 September)

Event Time Altitude Azimuth Distance (km) Brightness Sun altitude
Rises 23:28:54 0° 330° (NNW) 3,416 6.5 -23.1°
Reaches altitude 10° 23:31:21 10° 332° (NNW) 2,479 5.6 -23.2°
Maximum altitude 23:37:04 81° 60° (ENE) 864 2.2 -23.3°
Enters shadow 23:38:40 49° 139° (SE) 1,080 2.4 -23.3°
